TimeEST,TemperatureF,Dew PointF,Humidity,Sea Level PressureIn,VisibilityMPH,Wind Direction,Wind SpeedMPH,Gust SpeedMPH,PrecipitationIn,Events,Conditions,WindDirDegrees,DateUTC
12:54 AM,41.0,28.0,60,29.76,10.0,SSW,5.8,-,N/A,,Overcast,210,2012-02-22 05:54:00
1:54 AM,41.0,28.0,60,29.74,10.0,Calm,Calm,-,N/A,,Overcast,0,2012-02-22 06:54:00
2:54 AM,39.9,28.0,63,29.70,10.0,Calm,Calm,-,N/A,,Overcast,0,2012-02-22 07:54:00
3:54 AM,37.9,28.0,68,29.69,10.0,Calm,Calm,-,N/A,,Overcast,0,2012-02-22 08:54:00
4:54 AM,41.0,28.9,62,29.67,10.0,WSW,6.9,-,N/A,,Overcast,240,2012-02-22 09:54:00
5:54 AM,41.0,30.9,67,29.68,10.0,SW,5.8,-,N/A,,Overcast,230,2012-02-22 10:54:00
6:25 AM,39.2,32.0,75,29.66,10.0,SW,5.8,-,N/A,,Overcast,230,2012-02-22 11:25:00
6:54 AM,39.9,33.1,77,29.68,10.0,SW,5.8,-,0.00,Rain,Light Rain,220,2012-02-22 11:54:00
7:54 AM,41.0,34.0,76,29.68,10.0,SW,4.6,-,0.01,,Overcast,220,2012-02-22 12:54:00
8:54 AM,42.1,34.0,73,29.69,10.0,SW,6.9,-,N/A,,Mostly Cloudy,230,2012-02-22 13:54:00
9:54 AM,45.0,28.9,53,29.67,10.0,West,12.7,20.7,N/A,,Mostly Cloudy,280,2012-02-22 14:54:00
10:54 AM,45.0,28.0,52,29.65,10.0,West,13.8,20.7,N/A,,Partly Cloudy,260,2012-02-22 15:54:00
1:54 PM,51.1,19.9,29,29.55,10.0,WSW,8.1,-,N/A,,Scattered Clouds,240,2012-02-22 18:54:00
2:54 PM,48.9,19.9,32,29.55,10.0,Variable,5.8,-,N/A,,Overcast,0,2012-02-22 19:54:00
3:54 PM,50.0,21.0,32,29.52,10.0,South,11.5,17.3,N/A,,Mostly Cloudy,190,2012-02-22 20:54:00
4:54 PM,48.9,21.9,35,29.51,10.0,SSW,10.4,19.6,N/A,,Overcast,200,2012-02-22 21:54:00
5:54 PM,48.9,24.1,38,29.51,10.0,SSW,10.4,-,N/A,,Overcast,200,2012-02-22 22:54:00
6:54 PM,48.0,25.0,41,29.53,10.0,SW,5.8,19.6,N/A,,Overcast,220,2012-02-22 23:54:00
7:54 PM,48.0,26.1,42,29.52,10.0,South,15.0,27.6,N/A,,Overcast,190,2012-02-23 00:54:00
8:54 PM,48.0,26.1,42,29.52,10.0,Variable,4.6,-,N/A,,Overcast,0,2012-02-23 01:54:00
9:54 PM,48.0,26.1,42,29.49,10.0,SSW,13.8,21.9,N/A,,Mostly Cloudy,200,2012-02-23 02:54:00
10:54 PM,46.0,26.1,46,29.46,10.0,South,9.2,19.6,N/A,,Clear,170,2012-02-23 03:54:00
11:54 PM,48.0,27.0,44,29.42,10.0,Variable,6.9,16.1,N/A,,Clear,0,2012-02-23 04:54:00